Location: Newark
(49.3000°N, 9.4667°E)
Time: 11:13:25
(UTC+00:00)

Transit 2A Rocket - Pass Details

Date: 23 May 2019
Orbit: 586 x 917 km, 66.7° (Epoch: 18 June)

Event Time Altitude Azimuth Distance (km) Brightness Sun altitude
Rises 00:01:48 0° 324° (NW) 3,497 9.1 -19.6°
Reaches altitude 10° 00:04:38 10° 333° (NNW) 2,517 8.4 -19.5°
Maximum altitude 00:09:53 33° 38° (NE) 1,344 6.8 -19.3°
Drops below altitude 10° 00:14:44 10° 102° (ESE) 2,318 7.5 -19.1°
Sets 00:17:14 0° 112° (ESE) 3,185 8.1 -19.0°
